GLENN Weather Reports


time (UTC)temp
F
wind
direction
speed
knots
gust
knots
rain 1hr
in
rain 24hr
in
rain mn
in
humidity
%
barometer
mb
20260905000007 77 291 0.9 3.5 0.00 0.00 0.00 27 1013.9
20260904234513 76 300 1.7 2.6 0.00 0.00 0.00 31 1013.9
20260904233019 77 207 0.9 6.1 0.00 0.00 0.00 26 1014.0
20260904231527 76 289 0.9 3.5 0.00 0.00 0.00 26 1014.0
20260904230057 77 331 1.7 5.2 0.00 0.00 0.00 28 1013.7
20260904224520 77 227 1.7 7.8 0.00 0.00 0.00 26 1013.7
20260904223015 78 252 0.9 3.5 0.00 0.00 0.00 27 1013.7
20260904221524 76 317 3.5 7.8 0.00 0.00 0.00 28 1013.7
20260904220029 75 299 1.7 7.0 0.00 0.00 0.00 31 1013.7
20260904214530 75 313 1.7 7.0 0.00 0.00 0.00 30 1013.5
20260904213016 76 318 1.7 7.0 0.00 0.00 0.00 30 1013.3
20260904211521 74 304 3.5 8.7 0.00 0.00 0.00 30 1013.3
20260904210028 75 53 1.7 6.1 0.00 0.00 0.00 29 1013.3
20260904204532 75 338 1.7 7.0 0.00 0.00 0.00 29 1013.2
20260904203012 76 318 3.5 5.2 0.00 0.00 0.00 27 1013.1
20260904201519 76 333 2.6 4.3 0.00 0.00 0.00 28 1013.2
20260904200025 74 335 1.7 3.5 0.00 0.00 0.00 30 1013.1
20260904194529 74 308 2.6 7.0 0.00 0.00 0.00 29 1013.0
20260904193025 74 323 1.7 6.1 0.00 0.00 0.00 29 1013.0
20260904191519 75 309 0.9 6.1 0.00 0.00 0.00 28 1013.0
20260904190003 74 275 3.5 8.7 0.00 0.00 0.00 28 1013.0
20260904184505 73 352 2.6 7.0 0.00 0.00 0.00 29 1013.1
20260904183009 73 26 0.0 7.0 0.00 0.00 0.00 28 1013.1
20260904181514 73 324 6.1 11.3 0.00 0.00 0.00 28 1013.0
20260904180018 74 342 2.6 7.8 0.00 0.00 0.00 29 1012.8
20260904174505 73 17 1.7 9.6 0.00 0.00 0.00 32 1012.8
20260904173008 72 323 4.3 8.7 0.00 0.00 0.00 31 1012.9
20260904171511 73 281 4.3 10.4 0.00 0.00 0.00 31 1012.7
20260904170016 74 349 5.2 9.6 0.00 0.00 0.00 28 1012.3
20260904164523 75 5 1.7 7.8 0.00 0.00 0.00 28 1012.0
20260904163006 73 350 0.9 6.1 0.00 0.00 0.00 28 1012.0
20260904161508 70 340 1.7 6.1 0.00 0.00 0.00 30 1011.7
20260904160016 71 252 3.5 6.1 0.00 0.00 0.00 29 1011.5
20260904154519 73 223 8.7 17.4 0.00 0.00 0.00 24 1011.5
20260904153033 75 215 9.6 13.9 0.00 0.00 0.00 24 1011.2
20260904151508 75 184 2.6 8.7 0.00 0.00 0.00 23 1011.0
20260904150023 74 171 7.8 14.8 0.00 0.00 0.00 20 1010.9
20260904144516 74 142 5.2 10.4 0.00 0.00 0.00 23 1010.6
20260904143023 73 124 8.7 16.5 0.00 0.00 0.00 22 1010.5
20260904141526 73 155 7.0 11.3 0.00 0.00 0.00 23 1010.3
20260904140011 72 146 8.7 14.8 0.00 0.00 0.00 21 1010.0
20260904134521 72 143 10.4 17.4 0.00 0.00 0.00 22 1009.6
20260904133021 72 159 10.4 16.5 0.00 0.00 0.00 21 1009.4
20260904131526 72 128 13.0 18.2 0.00 0.00 0.00 22 1009.2
20260904130044 72 148 13.0 18.2 0.00 0.00 0.00 22 1009.2
20260904124510 72 124 13.9 20.9 0.00 0.00 0.00 22 1008.9
20260904123024 71 144 12.2 20.9 0.00 0.00 0.00 23 1008.4
20260904121524 70 123 9.6 13.9 0.00 0.00 0.00 24 1008.4
20260904120036 72 140 12.2 20.0 0.00 0.00 0.00 22 1008.4
20260904114530 73 148 15.6 26.1 0.00 0.00 0.00 21 1008.1
20260904113018 72 125 17.4 26.1 0.00 0.00 0.00 21 1007.9
20260904111524 71 119 11.3 22.6 0.00 0.00 0.00 23 1007.8
20260904110030 70 90 10.4 17.4 0.00 0.00 0.00 26 1008.1
20260904104530 70 98 10.4 18.2 0.00 0.00 0.00 25 1008.0
20260904103015 70 82 10.4 15.6 0.00 0.00 0.00 25 1008.2
20260904101505 70 100 7.8 13.9 0.00 0.00 0.00 25 1008.3
20260904100004 71 101 9.6 14.8 0.00 0.00 0.00 24 1008.4
20260904094509 70 98 8.7 16.5 0.00 0.00 0.00 24 1008.3
20260904093013 71 120 8.7 14.8 0.00 0.00 0.00 24 1008.5
20260904091522 70 100 7.8 16.5 0.00 0.00 0.00 24 1008.6
20260904090003 70 102 9.6 14.8 0.00 0.00 0.00 25 1008.7
20260904084507 70 88 7.8 15.6 0.00 0.00 0.00 25 1009.0
20260904083011 70 121 9.6 13.9 0.00 0.00 0.00 25 1009.3
20260904081515 70 137 9.6 18.2 0.00 0.00 0.00 24 1009.6
20260904080019 70 144 10.4 18.2 0.00 0.00 0.00 23 1009.8
20260904074502 70 106 8.7 14.8 0.00 0.00 0.00 24 1009.9
20260904073011 70 121 10.4 15.6 0.00 0.00 0.00 25 1010.0
20260904071519 70 134 9.6 14.8 0.00 0.00 0.00 25 1010.1
20260904070020 70 121 10.4 14.8 0.00 0.00 0.00 25 1010.3
20260904064527 69 145 7.8 13.0 0.00 0.00 0.00 26 1010.5
20260904063005 69 98 8.7 13.9 0.00 0.00 0.00 27 1010.6
20260904061527 69 141 10.4 16.5 0.00 0.00 0.00 27 1010.5
20260904060019 68 117 7.8 13.0 0.00 0.00 0.00 28 1010.6
20260904054524 68 129 10.4 13.9 0.00 0.00 0.00 28 1010.7
20260904053028 68 120 7.0 12.2 0.00 0.00 0.00 28 1010.8
20260904051506 69 82 2.6 7.0 0.00 0.00 0.00 27 1011.0
20260904050018 69 104 2.6 9.6 0.00 0.00 0.00 26 1011.0
20260904044535 69 128 4.3 10.4 0.00 0.00 0.00 26 1011.0
20260904043035 69 103 5.2 11.3 0.00 0.00 0.00 27 1011.3
20260904041532 67 123 0.9 2.6 0.00 0.00 0.00 28 1011.6
20260904040011 67 86 0.9 1.7 0.00 0.00 0.00 29 1011.8
20260904034519 67 80 1.7 3.5 0.00 0.00 0.00 30 1012.0
20260904033025 67 96 3.5 6.1 0.00 0.00 0.00 30 1012.2
20260904031529 68 110 2.6 5.2 0.00 0.00 0.00 30 1012.4
20260904030031 68 121 3.5 7.8 0.00 0.00 0.00 29 1012.6
20260904024516 68 139 6.1 9.6 0.00 0.00 0.00 30 1012.6
20260904023020 67 136 6.1 10.4 0.00 0.00 0.00 31 1012.5
20260904021527 67 165 5.2 9.6 0.00 0.00 0.00 31 1012.5
20260904020028 68 166 4.3 11.3 0.00 0.00 0.00 32 1012.4
20260904014534 67 161 4.3 7.0 0.00 0.00 0.00 33 1012.3
20260904013004 67 150 2.6 4.3 0.00 0.00 0.00 34 1012.2
20260904011505 69 215 6.1 10.4 0.00 0.00 0.00 31 1012.1
20260904010004 69 192 3.5 7.0 0.00 0.00 0.00 32 1012.1
20260904004503 71 205 5.2 9.6 0.00 0.00 0.00 30 1012.0
20260904003004 72 197 4.3 7.8 0.00 0.00 0.00 31 1011.8
20260904001505 71 205 4.3 11.3 0.00 0.00 0.00 31 1011.7